Wind_Speed
18 18 17 18 19 19 20 20 20 20 19 18 18 17 16 15 15 14 14 13 12 12 11 11 12 12 12 11 12 12 11 11 10 10 10 10 11 12 14 14 14 14 14 15 15 15 15 14 15 16 16 16 14 15 19 21 23 19 14 12 11 11 10 10 8 8 11 9 5 9 13 9 8 10 11 10 6 7 8 6 5 4 2 2 2 2 5 6
18 17 17 18 19 20 20 21 20 19 19 18 17 16 16 16 15 15 14 13 13 12 12 12 12 13 13 13 12 13 13 12 12 12 12 13 14 16 17 16 16 16 17 18 19 19 17 15 18 18 15 14 15 15 16 19 20 15 12 12 11 9 9 8 6 7 8 8 7 8 13 10 9 10 9 8 3 4 7 6 5 4 3 2 3 5 7 8
17 17 18 19 20 21 21 21 20 19 18 17 16 16 16 15 15 15 15 14 13 13 13 13 13 14 14 13 14 15 15 15 16 17 16 17 18 19 19 18 19 19 20 21 21 21 19 18 20 19 13 13 15 15 14 16 16 13 11 10 10 9 7 7 7 7 8 10 8 8 14 10 7 7 7 7 5 6 8 7 6 4 5 5 5 9 11 11
18 19 20 20 21 21 21 21 20 19 17 17 16 16 15 15 14 14 14 15 15 14 13 13 13 14 14 15 16 17 18 19 20 20 19 19 20 21 21 22 23 24 24 23 22 23 23 22 23 20 12 13 16 14 14 15 14 11 10 8 9 9 6 7 12 13 13 15 10 7 11 7 5 7 10 11 7 8 8 7 8 7 7 8 10 13 12 11
19 20 20 21 22 22 21 21 20 18 17 16 16 15 15 14 14 14 15 16 16 16 15 13 13 12 13 15 15 18 20 20 21 20 20 21 22 24 25 25 25 25 23 22 21 22 22 22 23 18 12 14 14 13 12 13 13 8 7 8 9 8 6 10 17 17 17 16 11 9 9 6 6 10 11 10 7 7 7 6 9 8 8 10 12 13 11 9
21 21 21 22 22 21 21 20 19 17 17 16 15 15 14 13 14 14 15 16 17 17 17 17 15 13 12 12 13 18 20 19 22 21 21 23 24 26 26 24 22 21 20 20 19 18 17 18 17 12 11 12 11 12 12 12 12 7 8 11 10 10 9 13 18 18 18 15 10 7 8 9 7 9 10 8 8 8 8 8 10 9 9 13 14 13 13 11
21 21 22 22 22 21 21 20 18 17 16 15 15 14 13 13 14 15 16 17 18 19 19 19 19 18 16 16 18 21 23 23 24 22 23 25 25 26 24 23 21 19 18 17 17 15 15 14 12 10 10 11 10 11 11 12 12 10 11 12 11 13 13 15 17 17 15 11 7 7 9 9 5 6 8 9 10 8 8 9 10 8 11 15 16 16 14 12
21 22 23 22 22 21 20 19 18 16 16 15 15 14 14 14 14 16 17 18 20 20 20 20 21 20 19 21 22 24 26 26 25 23 24 24 23 23 22 21 20 18 17 15 15 14 13 11 11 11 9 10 12 11 12 14 13 11 12 13 14 15 16 16 16 16 12 8 7 7 8 8 6 6 6 8 10 8 8 9 10 9 11 12 14 16 13 10
22 22 23 22 22 20 19 18 17 16 16 15 15 15 14 14 14 15 17 18 20 20 21 21 22 21 21 24 24 24 26 26 24 23 22 22 21 20 19 18 17 16 15 14 13 12 11 10 11 11 9 12 12 11 14 12 12 13 13 14 15 15 16 15 14 14 11 9 8 7 8 8 6 5 5 8 9 9 9 9 10 10 10 11 12 14 12 9
23 23 23 22 21 20 19 17 16 16 16 16 15 15 15 15 15 16 17 19 20 21 22 22 22 21 22 24 21 22 25 24 22 21 20 19 18 18 16 16 14 13 13 13 12 10 10 10 11 12 11 12 12 12 13 11 13 15 14 14 14 14 14 13 12 11 9 9 9 9 9 8 6 4 5 6 6 9 11 10 11 10 11 12 13 13 11 9
23 24 23 23 21 20 18 17 16 16 16 16 16 16 16 16 16 17 18 19 21 21 22 23 23 22 23 22 18 20 23 21 20 18 17 16 15 14 13 13 12 12 12 12 11 10 10 10 11 12 11 11 12 12 13 13 13 14 13 13 12 11 12 12 11 11 10 10 9 8 10 9 6 4 5 5 5 7 10 11 11 11 12 12 13 13 10 8
24 24 23 23 21 20 19 17 16 16 16 16 16 17 17 17 17 18 19 19 20 20 21 22 23 22 23 21 18 20 20 18 17 16 15 14 12 12 11 11 10 10 12 12 11 10 10 9 10 12 10 10 11 10 11 12 11 12 12 12 10 10 11 12 11 11 11 9 9 8 7 8 6 4 5 5 5 6 8 10 11 11 12 11 11 11 8 6
24 24 23 22 21 20 18 17 16 16 16 16 17 17 18 18 18 18 19 20 21 22 23 23 22 22 21 18 18 19 17 17 16 14 13 12 10 9 9 9 8 10 10 10 10 10 10 10 11 13 11 11 9 8 10 11 10 9 9 10 9 8 7 10 13 12 10 9 10 9 5 5 6 6 5 5 5 6 6 10 11 11 11 10 10 9 7 5
24 24 24 22 20 19 18 16 16 15 15 16 17 17 18 19 19 20 22 23 24 24 24 23 22 22 19 17 17 17 16 15 13 12 11 9 8 7 7 8 8 9 8 9 10 10 11 11 12 13 11 11 10 10 11 10 8 6 7 8 9 8 6 7 15 13 11 11 11 11 8 4 4 7 6 4 5 5 6 10 11 12 11 10 9 7 6 5
24 24 23 22 20 19 17 16 15 15 15 15 16 17 18 20 20 22 23 25 25 23 22 21 21 20 16 15 16 15 14 13 11 10 9 8 7 6 6 6 8 9 9 10 10 10 11 11 12 11 9 9 9 8 7 7 6 5 6 6 8 10 7 6 15 14 11 14 13 11 10 7 4 7 7 5 4 5 7 9 11 10 9 9 8 7 6 5
24 23 22 21 20 18 17 16 15 15 16 17 18 19 20 21 21 23 23 23 21 20 19 17 19 19 13 12 15 14 12 10 9 9 10 8 8 6 6 8 10 11 10 12 12 11 11 10 10 8 7 6 3 3 5 5 5 3 5 6 6 10 9 6 8 10 12 17 15 11 10 9 6 7 8 6 5 5 6 8 9 9 8 8 7 7 6 5
23 22 21 21 20 18 17 16 16 16 17 19 20 20 20 20 20 20 20 19 17 17 16 15 16 16 13 12 13 12 11 11 10 9 10 10 9 9 10 12 12 10 10 11 11 10 9 8 8 6 5 3 0 2 6 7 6 4 4 6 5 7 10 7 8 9 7 17 15 10 11 11 9 8 9 7 5 4 6 7 8 9 8 7 7 7 6 4
21 20 20 20 19 18 17 16 16 17 18 19 19 19 18 18 18 17 17 17 16 14 13 13 13 11 11 12 11 11 11 12 11 10 9 10 10 11 12 11 10 9 9 8 8 7 6 5 5 3 3 4 3 2 4 5 5 5 5 8 7 9 11 10 10 11 7 13 13 9 11 13 11 10 9 8 6 6 7 8 9 9 8 8 9 8 7 5
19 19 19 20 19 18 17 16 16 16 17 17 18 18 17 16 15 14 15 14 12 10 8 9 10 10 10 10 10 11 11 11 11 10 10 9 9 10 9 8 7 8 7 5 5 6 4 2 3 3 5 6 5 5 3 1 2 5 5 7 9 12 14 15 16 14 8 11 12 11 13 13 11 11 11 9 7 7 9 10 10 9 8 8 9 9 7 5
17 18 19 20 19 18 17 16 16 15 15 16 17 16 15 14 12 10 12 12 12 12 11 10 11 12 11 10 9 10 10 10 10 10 10 8 9 9 8 7 7 6 5 4 4 5 4 4 5 6 6 6 6 6 5 3 2 5 6 7 10 14 17 16 16 15 7 9 15 12 13 14 10 11 11 10 8 8 9 9 9 9 8 8 8 8 7 5
17 17 19 20 18 17 16 16 16 14 14 15 14 12 13 14 12 11 13 13 12 12 12 10 10 11 11 10 9 10 11 10 8 9 9 8 9 8 7 7 6 5 5 4 4 4 5 6 7 7 6 6 7 6 6 5 5 6 7 9 10 11 13 9 10 13 8 11 18 14 14 15 10 10 11 10 8 9 10 9 8 7 8 7 7 6 5 5
16 16 18 19 18 17 16 16 15 13 13 13 10 10 13 13 13 13 14 12 11 10 10 9 9 9 9 9 9 10 10 7 6 7 8 8 8 6 6 6 4 4 4 2 2 3 6 8 6 6 6 6 6 6 5 6 5 5 7 8 8 10 12 11 13 16 12 16 21 17 16 16 11 10 10 9 8 10 11 10 8 6 6 6 7 6 5 6
15 16 17 18 17 17 16 16 15 12 12 10 9 11 12 12 12 13 13 12 9 8 8 7 7 8 7 7 8 8 5 4 6 7 7 8 7 6 6 5 4 4 4 2 2 4 7 8 6 6 6 5 4 4 4 5 5 4 4 6 9 12 13 11 14 13 11 18 23 21 20 17 11 10 9 10 10 11 12 11 10 8 6 6 7 7 6 8
15 15 16 17 16 16 16 15 13 12 11 10 10 12 11 11 12 12 13 12 8 7 7 6 6 6 6 6 7 6 3 3 7 7 7 8 6 6 6 6 6 6 7 7 7 9 9 8 8 8 7 3 2 2 1 3 5 5 5 6 10 9 10 12 14 15 18 20 21 22 21 17 12 11 11 11 10 11 12 12 11 10 9 9 9 10 10 12
14 14 15 17 16 16 15 13 13 12 11 10 11 12 11 12 13 12 12 10 6 5 4 3 4 4 5 6 5 6 6 5 6 6 7 7 6 4 4 6 8 8 9 9 9 12 11 10 11 8 6 4 3 3 2 1 5 8 8 8 12 9 13 20 19 20 20 16 13 12 12 11 11 12 12 12 11 11 11 10 11 12 11 11 11 11 11 12
14 13 15 16 16 16 14 12 12 12 10 10 11 11 11 11 11 11 9 6 5 4 4 3 2 3 4 5 5 5 5 4 5 6 5 5 4 3 3 5 8 9 9 8 8 11 10 9 10 7 6 5 4 5 4 2 4 8 7 8 12 13 18 23 19 14 13 10 7 5 7 11 10 11 12 12 12 12 10 9 10 10 9 8 7 7 7 8
14 13 15 16 16 15 13 12 12 12 9 9 11 10 10 10 10 10 6 3 4 3 4 3 2 4 6 5 6 4 2 3 5 6 4 3 3 4 6 5 7 8 7 5 6 9 8 6 8 8 8 7 6 7 4 2 4 9 7 6 11 14 17 19 13 11 11 11 10 7 12 16 11 10 12 12 12 12 10 9 9 8 7 6 5 5 5 6
14 14 15 16 16 14 13 13 13 11 8 10 10 9 11 10 7 4 2 1 3 3 3 4 4 5 5 4 6 4 4 4 4 6 5 3 3 4 8 7 6 6 4 3 5 8 7 7 9 8 8 8 9 8 4 4 6 10 8 7 13 13 12 12 10 12 12 11 13 10 10 12 10 9 10 10 10 10 10 9 9 8 7 6 5 5 5 6
14 14 15 15 15 14 13 13 13 10 9 10 9 9 11 7 2 1 2 1 3 2 2 3 3 3 3 4 5 4 5 5 5 6 6 4 3 5 9 9 7 5 5 6 8 9 7 7 8 9 9 9 9 8 6 7 7 10 11 11 13 10 8 8 7 10 9 7 10 7 5 8 8 9 8 8 8 8 8 8 7 6 6 5 5 4 5 6
14 15 15 14 15 14 13 13 12 10 9 9 7 8 9 4 2 2 1 2 3 2 3 3 3 2 3 3 5 5 5 6 8 8 6 5 5 6 8 8 8 8 8 10 11 11 9 8 9 11 10 9 9 9 7 8 8 10 13 13 11 9 7 6 5 8 7 6 7 5 5 6 6 8 8 8 9 8 7 6 5 4 3 3 4 4 5 5
15 15 15 15 15 14 13 13 12 9 8 7 6 6 5 3 2 2 1 3 3 3 4 4 4 3 3 2 3 5 6 7 10 8 5 6 6 7 8 6 7 8 10 11 11 10 9 8 9 11 11 9 8 9 8 8 9 10 11 11 10 9 7 6 7 7 4 5 5 5 4 2 3 9 9 8 9 8 7 5 4 3 1 2 2 3 4 4
15 16 16 16 16 15 14 13 11 9 8 5 4 3 2 3 2 1 2 3 2 2 4 3 4 3 3 2 3 5 6 7 10 8 4 4 4 8 9 8 9 7 6 8 8 8 8 8 8 10 12 9 5 5 7 7 7 6 7 8 7 7 6 5 6 4 3 5 5 5 3 1 4 8 10 9 8 7 8 7 4 3 0 1 2 2 3 4
16 17 17 17 17 15 14 13 11 9 6 4 3 2 1 3 1 2 2 2 3 4 4 4 4 3 3 2 5 7 7 7 9 9 5 4 4 5 6 10 12 5 3 6 6 6 6 7 7 8 10 9 4 2 4 6 6 5 6 5 2 3 4 4 4 4 5 6 6 4 2 3 5 7 9 10 9 8 8 6 4 2 1 0 1 2 4 5
16 17 17 17 16 15 14 13 11 9 6 4 3 2 2 2 1 3 2 2 4 6 4 4 4 3 2 2 6 7 6 6 8 9 6 5 5 4 3 6 10 5 4 6 4 2 4 5 7 7 7 10 7 4 4 6 5 3 4 2 2 3 1 1 2 3 6 8 8 5 2 3 7 7 9 11 10 8 6 5 4 2 1 1 1 4 5 5
17 17 17 17 16 15 14 13 11 9 7 4 2 2 3 0 2 3 3 4 6 6 4 4 3 3 2 4 8 7 4 4 7 8 7 7 6 4 4 3 7 7 4 3 3 2 3 5 5 5 6 9 9 4 5 5 3 2 3 1 1 2 3 2 3 5 5 8 7 5 2 2 4 6 8 10 10 8 6 6 4 2 2 1 2 4 5 7
16 16 16 17 16 14 13 13 12 10 7 3 2 3 3 1 3 5 6 6 6 6 5 3 3 1 2 5 8 8 5 4 5 6 6 7 7 5 5 3 7 9 5 1 3 4 3 5 3 4 5 7 8 6 3 4 2 2 3 2 2 1 1 1 4 4 3 5 5 4 4 3 5 7 9 9 9 9 7 6 4 2 2 1 3 5 7 9
14 15 15 16 16 13 12 13 13 10 7 3 3 4 4 3 6 7 7 7 6 6 5 1 1 2 3 4 5 5 4 4 5 5 5 6 5 3 5 4 4 8 8 4 3 3 4 6 5 4 4 6 8 6 3 2 3 2 3 3 3 2 2 1 3 4 5 3 5 5 6 6 6 7 9 10 10 10 8 6 5 3 2 1 3 6 8 9
14 14 14 15 15 13 11 12 12 10 7 4 4 4 3 5 7 7 8 7 6 5 3 1 2 3 3 4 5 5 4 3 3 4 5 6 4 2 5 4 2 4 7 4 2 3 5 6 4 2 2 5 7 4 3 1 4 4 4 6 4 1 3 3 2 3 3 2 4 4 4 6 9 8 10 12 12 11 9 7 6 4 3 1 2 5 6 7
12 13 13 13 13 12 11 11 11 10 6 3 3 3 3 6 7 7 7 8 7 5 3 3 1 2 2 4 5 5 6 5 4 4 5 6 5 3 4 3 2 2 4 4 4 5 3 2 3 2 3 3 6 4 3 3 2 5 4 5 2 1 2 4 2 2 1 2 3 4 3 4 6 7 8 11 12 11 10 8 7 7 5 3 2 3 4 5
11 11 11 11 12 12 11 11 11 9 7 5 4 3 4 7 9 8 8 8 7 5 3 3 1 1 4 7 6 6 9 8 8 7 6 7 7 5 4 4 3 2 3 4 5 5 2 1 3 4 4 4 6 6 5 4 3 3 3 3 2 2 3 4 2 1 3 1 2 3 4 2 3 6 7 9 12 11 10 9 8 8 6 5 4 3 3 4
10 9 9 10 11 12 12 12 11 9 8 6 5 5 7 10 11 10 8 7 5 5 5 4 4 6 7 7 6 8 10 9 9 9 8 8 6 4 4 5 4 3 5 3 2 2 2 2 3 4 6 7 5 6 7 6 5 4 2 3 2 2 3 3 3 2 2 1 1 1 3 4 2 7 8 8 11 11 10 9 8 8 7 6 5 3 4 4
9 9 9 11 12 13 13 12 10 8 7 6 5 8 10 13 12 10 8 7 6 7 8 7 7 9 10 9 8 10 10 9 9 8 8 8 7 5 5 5 4 4 4 2 3 2 1 3 4 5 6 7 7 9 9 8 9 6 4 4 2 1 1 4 1 4 2 1 0 1 2 3 1 7 9 8 9 10 10 10 8 8 8 6 5 4 5 5
11 11 11 12 14 14 13 10 8 7 8 8 8 10 12 13 12 10 9 10 9 9 9 9 9 9 10 10 10 10 10 10 9 9 8 8 7 7 7 6 5 5 4 2 1 1 1 3 4 4 5 5 6 11 12 10 10 7 5 5 4 3 2 3 3 4 3 2 1 2 2 3 1 5 9 9 10 10 10 10 8 8 8 6 5 4 5 6
13 13 13 14 14 14 11 9 8 8 9 10 11 12 13 13 13 12 12 12 11 10 10 10 10 10 9 10 10 9 8 8 9 8 8 8 7 8 8 7 6 5 4 3 3 2 1 2 2 2 4 5 3 3 7 10 9 6 5 5 6 5 4 4 4 3 2 3 2 3 3 4 1 2 6 8 9 9 9 9 8 8 7 5 4 4 5 5
13 13 14 14 14 12 10 8 9 9 11 13 13 12 13 13 13 14 13 13 12 11 11 11 11 11 10 10 9 8 8 7 7 8 8 8 8 8 9 8 7 6 5 5 4 3 3 3 0 2 2 2 3 3 4 6 6 6 6 6 6 6 5 4 1 2 3 4 2 4 5 4 1 2 4 7 8 9 10 9 7 7 7 5 4 5 5 5
14 13 14 14 12 11 9 9 9 9 11 13 13 13 13 13 13 14 14 14 13 11 11 12 12 12 11 10 9 8 8 8 7 8 8 7 8 9 10 9 8 7 6 6 6 6 5 5 3 4 5 6 6 5 5 5 4 4 5 5 6 7 7 5 2 3 3 2 3 5 4 2 1 1 5 7 8 9 10 10 8 8 7 6 6 6 6 7
14 13 15 15 12 10 9 8 9 9 11 13 12 13 13 12 13 13 13 13 13 11 11 11 11 11 11 10 9 8 9 8 8 9 8 8 9 10 10 10 8 7 6 6 8 8 6 5 5 5 5 5 6 5 5 5 3 2 2 4 4 5 7 7 4 5 3 1 3 6 4 2 1 1 4 6 8 9 10 11 10 9 9 8 7 7 7 8
13 13 15 14 12 11 10 8 8 10 12 13 12 13 13 13 13 13 13 13 12 11 10 10 10 10 10 9 8 7 8 8 7 7 8 9 9 9 10 10 9 8 7 7 7 8 6 4 5 5 3 3 4 3 2 2 1 1 1 1 2 2 4 5 3 3 3 3 4 4 5 4 4 4 3 5 8 10 10 11 11 11 11 10 9 8 9 9
13 13 14 12 10 11 9 7 8 10 12 13 13 14 14 14 13 13 13 13 12 10 10 10 10 9 9 9 8 7 6 6 5 6 7 7 7 7 6 7 8 9 8 6 5 6 6 4 4 5 3 1 1 1 0 1 2 2 2 3 2 1 2 1 2 1 1 3 4 5 7 7 6 6 6 8 11 11 12 13 13 13 12 11 10 10 10 11
12 13 13 11 10 10 9 7 8 10 13 14 14 14 14 13 12 12 12 13 11 10 10 9 8 8 7 7 8 7 6 6 5 5 6 5 6 6 5 5 6 7 8 7 6 6 5 3 3 4 2 1 3 3 3 3 3 4 5 5 4 4 3 4 4 4 4 4 5 7 8 6 5 7 8 10 11 11 12 13 13 12 12 12 11 11 11 12
12 12 12 10 11 11 8 7 9 10 12 14 14 14 13 12 12 12 12 12 11 10 10 9 7 7 6 5 6 6 5 6 6 5 5 5 4 4 4 4 5 5 6 7 7 8 6 4 4 3 1 2 3 4 4 4 5 6 6 6 6 5 5 5 5 5 6 6 6 8 7 4 6 10 10 9 10 10 10 10 11 11 12 12 12 12 12 13
13 13 13 11 10 10 7 7 8 8 10 13 15 14 13 12 12 12 11 11 10 9 9 8 7 5 5 4 4 4 4 4 4 4 4 4 3 3 3 3 4 4 4 5 6 6 5 5 3 0 0 2 3 4 3 4 5 4 4 4 5 5 5 6 6 6 7 7 7 8 7 7 11 13 10 8 9 9 9 9 10 11 11 12 13 13 13 14
Wind_Direction
120 119 116 110 105 101 99 96 95 95 94 91 87 81 77 72 67 63 61 60 60 63 66 70 72 72 71 70 72 74 76 78 78 76 72 74 83 90 95 99 99 99 99 102 104 105 111 118 130 131 131 140 145 161 169 172 177 176 177 184 173 162 151 140 135 118 123 128 129 120 110 100 101 107 108 112 131 154 159 163 163 183 194 190 194 170 164 171
122 120 114 109 106 104 102 102 102 101 96 91 85 81 77 72 68 65 63 63 64 66 69 73 77 78 76 74 74 73 72 72 74 75 79 87 93 95 95 95 95 95 96 97 98 99 99 108 119 119 121 133 139 150 160 163 166 169 176 175 162 151 139 138 134 123 128 127 127 123 114 105 104 108 102 104 127 140 135 130 136 162 151 143 151 147 152 152
123 117 112 110 109 107 107 108 107 102 96 90 86 82 78 75 73 70 69 69 70 71 73 76 79 83 83 81 78 75 73 73 76 79 84 91 94 94 94 93 93 93 94 95 97 99 100 103 109 110 115 126 132 137 143 151 153 160 168 159 146 140 127 132 134 133 142 130 128 129 114 105 117 121 99 97 84 76 99 111 116 136 122 122 144 141 143 148
120 115 113 113 111 112 114 113 108 101 97 92 88 84 81 79 76 75 74 73 74 75 77 80 83 85 85 85 85 85 80 76 78 81 84 88 91 92 92 93 94 95 95 94 94 96 98 98 101 105 111 115 118 122 133 142 139 145 151 138 137 132 115 136 137 132 138 133 132 131 113 111 127 107 97 106 96 67 80 107 113 116 118 132 141 132 134 146
118 116 116 115 116 118 118 113 108 104 99 94 90 87 83 80 78 77 75 74 74 74 76 79 84 89 90 89 92 89 81 78 82 83 84 86 88 89 89 92 96 97 93 91 93 95 97 98 96 97 109 111 109 115 131 137 130 138 142 135 139 127 116 141 138 131 131 127 126 135 122 106 94 90 98 110 103 72 63 87 102 109 119 123 124 119 119 124
119 119 119 119 121 122 118 113 110 107 101 97 93 90 87 83 80 77 76 75 74 72 71 71 75 85 93 95 96 93 90 92 91 89 88 89 91 91 89 89 90 88 84 86 91 92 96 97 92 95 110 109 109 119 133 136 125 124 137 137 137 130 129 136 136 131 130 126 128 143 109 80 81 93 99 105 103 85 67 76 90 106 112 104 108 117 124 127
122 123 122 123 125 122 118 116 114 110 104 101 97 94 90 86 83 81 80 79 77 74 71 68 70 77 89 96 96 96 97 96 94 95 95 95 97 95 91 90 87 82 81 83 86 88 91 90 94 103 106 105 108 112 121 129 117 111 128 126 121 127 125 125 135 134 129 133 141 142 108 88 88 93 95 107 110 95 82 88 94 103 100 103 116 125 130 129
126 126 126 126 125 121 119 119 117 113 108 105 101 97 93 90 88 86 84 83 81 79 76 74 74 77 87 95 93 92 92 91 90 93 95 96 97 94 93 93 90 88 87 85 87 91 91 93 100 96 94 104 106 103 105 114 111 109 119 113 112 121 119 119 131 133 132 144 145 134 117 106 99 92 103 114 106 104 104 100 99 97 93 101 112 116 122 118
128 128 128 127 124 122 122 123 121 117 113 109 105 100 96 94 92 89 88 86 86 85 84 82 81 82 86 89 91 91 90 89 88 88 91 94 93 91 91 92 92 93 91 91 94 98 100 104 103 99 105 105 102 104 103 110 116 114 114 111 116 123 123 123 127 134 142 143 147 143 121 113 115 114 126 118 104 112 119 111 106 107 110 107 103 108 114 107
131 130 130 127 125 125 126 127 126 121 117 113 108 102 99 99 97 95 92 90 90 90 89 87 86 89 88 85 90 94 90 89 89 89 89 90 91 90 89 90 92 95 96 98 103 108 106 105 105 105 106 98 99 106 108 120 124 116 115 118 127 131 131 129 125 138 150 145 153 151 126 119 129 131 121 115 110 119 126 128 125 125 125 116 111 113 112 107
134 133 131 128 128 129 130 132 130 124 119 114 110 105 103 104 104 101 97 95 93 91 91 90 90 94 94 91 95 93 88 89 91 91 93 92 93 92 92 95 94 98 102 102 105 106 102 107 109 104 101 96 96 99 107 118 119 113 113 118 126 134 140 135 130 142 150 157 161 148 140 139 140 137 117 101 102 116 129 139 142 141 133 120 112 113 117 120
136 135 132 131 132 133 134 135 132 126 120 116 113 110 108 108 109 107 103 99 96 94 94 94 94 94 93 93 92 87 83 85 88 93 97 97 98 97 100 104 97 104 111 104 102 102 98 105 108 107 110 105 99 97 105 113 116 115 116 122 123 127 145 144 142 151 153 166 162 140 137 133 124 127 105 81 94 113 131 147 151 150 136 118 111 115 125 123
138 136 134 134 136 136 136 136 133 126 120 117 116 113 111 111 111 110 107 104 101 100 98 96 97 94 89 90 90 87 85 85 87 92 96 98 101 102 107 111 105 113 116 102 101 105 100 99 102 104 105 107 114 107 100 107 117 120 127 144 143 123 131 152 156 161 169 175 156 138 109 81 85 103 100 76 104 124 144 162 161 154 138 126 131 129 125 105
139 138 138 139 138 136 136 135 132 126 120 119 118 116 115 113 112 110 108 106 104 101 99 97 96 93 91 93 93 92 92 90 90 92 95 100 104 107 110 113 117 119 114 101 105 109 104 101 101 99 96 102 109 100 95 106 122 139 150 165 172 134 94 158 166 164 175 171 157 155 138 107 95 107 122 115 118 144 166 178 171 156 147 144 145 134 118 101
142 142 142 141 139 135 135 135 132 125 121 120 118 118 116 113 112 110 109 108 105 101 98 97 94 89 86 89 92 93 92 90 93 93 95 103 104 113 119 117 123 121 113 109 112 114 111 108 103 98 94 93 94 105 121 128 131 165 175 173 175 148 109 144 165 163 172 160 156 174 154 130 126 111 130 143 133 161 175 186 176 156 157 153 142 131 119 115
147 146 144 142 138 136 137 135 130 125 121 120 119 117 115 113 112 112 112 109 105 101 97 95 92 87 85 92 91 88 90 91 92 90 92 100 101 106 114 117 120 119 117 117 119 120 120 115 105 99 90 81 88 153 185 179 160 190 198 181 166 157 142 100 129 150 180 172 156 177 169 128 117 111 125 143 144 168 179 187 178 165 169 161 145 136 128 125
151 148 145 141 139 139 138 134 130 125 122 121 120 118 116 115 113 114 115 110 104 100 97 95 89 87 90 93 88 84 91 91 88 88 88 92 95 101 110 115 121 124 123 125 127 126 125 115 96 86 78 70 72 220 228 218 195 189 176 178 151 143 149 108 87 101 164 188 165 164 166 126 113 120 124 137 143 163 171 178 178 173 175 169 151 134 132 144
153 149 144 142 142 141 139 135 131 127 126 125 124 122 118 116 115 116 115 110 102 90 89 94 89 85 85 86 89 89 89 86 85 88 89 91 96 104 112 117 121 123 122 124 133 129 121 111 91 81 60 38 15 325 260 241 225 209 182 181 151 123 136 123 107 94 117 183 164 138 139 117 113 124 122 137 148 157 165 170 173 172 174 172 164 153 157 167
152 148 144 144 145 143 140 138 134 132 131 130 128 124 120 118 115 118 119 114 104 90 89 97 95 97 91 90 97 91 86 84 81 82 88 94 99 103 108 114 114 115 120 121 127 124 109 91 64 49 34 25 21 13 349 316 254 213 193 178 144 121 119 112 109 105 118 160 134 111 121 115 116 121 121 136 145 157 168 172 174 177 178 174 175 175 178 182
149 148 147 147 147 144 143 142 139 138 135 135 132 126 124 121 112 119 126 118 110 106 106 103 102 106 100 98 100 91 85 78 75 78 82 89 96 96 95 101 106 110 127 128 115 113 92 63 45 36 25 20 20 28 36 45 108 153 158 146 128 119 118 114 112 109 122 136 109 106 117 112 115 120 123 132 137 151 162 171 179 183 184 182 182 182 182 189
147 150 151 150 147 146 146 146 145 142 140 140 137 132 135 130 120 126 127 114 108 109 109 108 105 104 103 103 100 92 84 74 75 82 79 87 93 90 90 101 115 116 121 117 96 94 73 54 39 23 11 14 21 36 58 72 106 132 138 131 129 129 121 119 123 116 132 130 111 114 116 101 97 104 113 125 136 151 156 160 168 175 182 182 183 189 197 207
146 150 154 152 149 149 149 150 148 146 145 143 142 144 144 136 128 131 123 109 107 107 105 107 103 101 104 106 101 97 93 84 81 83 78 84 90 97 100 103 128 124 107 96 85 92 69 47 26 7 3 15 30 49 75 85 103 128 138 128 126 138 127 114 117 114 125 130 119 116 108 96 90 97 116 138 152 156 150 147 149 154 171 181 186 197 215 234
147 151 156 155 153 152 151 151 149 149 146 142 150 154 145 135 133 133 123 110 108 107 105 107 105 102 103 108 106 102 109 99 75 74 72 74 85 97 97 97 113 109 87 63 68 82 65 43 23 12 13 18 38 59 90 94 92 106 137 141 139 148 145 131 127 121 120 127 124 115 101 93 92 95 113 135 151 155 149 147 146 149 166 183 194 203 222 246
147 152 160 160 158 155 154 152 150 148 143 141 152 155 146 137 135 131 124 113 104 107 108 106 107 100 93 98 103 93 94 100 77 67 66 71 80 87 94 113 110 97 89 80 76 75 68 57 45 33 29 32 54 72 92 87 89 73 65 131 153 163 158 145 139 130 121 123 125 114 96 86 91 97 95 103 123 135 140 149 155 163 174 183 199 213 227 243
150 152 161 165 163 160 158 154 152 147 140 141 149 152 147 142 139 132 125 112 99 106 94 80 91 81 75 77 83 80 69 72 74 66 63 62 68 86 114 129 113 107 102 90 82 76 71 67 57 42 33 37 50 68 73 67 92 80 62 115 145 151 142 135 130 127 125 132 142 127 98 84 95 103 95 94 104 110 119 137 152 165 173 178 192 207 223 236
154 154 162 167 165 164 163 159 156 148 142 144 149 154 151 147 145 134 125 113 108 108 67 54 57 45 69 72 62 72 61 43 49 53 53 38 50 105 141 139 128 124 109 91 80 73 67 62 52 40 32 40 50 55 75 94 93 103 97 118 144 160 148 137 135 140 137 139 154 160 133 120 112 107 105 106 106 107 116 127 139 153 161 168 178 191 210 224
157 157 163 168 168 169 170 166 161 154 150 152 154 158 154 152 148 135 129 122 108 83 51 65 79 67 87 75 48 56 47 20 14 8 11 15 37 106 129 144 145 129 105 89 85 74 67 57 46 40 35 43 40 30 52 78 81 120 127 115 144 161 146 132 136 145 133 110 100 112 128 124 120 118 116 114 109 106 113 121 126 133 137 144 156 175 201 217
160 158 163 170 173 177 177 171 167 162 159 161 163 165 159 158 156 145 177 132 78 52 45 69 82 82 83 46 32 39 39 35 3 341 347 1 30 113 142 155 150 129 93 67 99 96 87 70 50 41 34 38 33 24 59 86 90 130 138 117 135 143 128 121 125 130 131 115 97 98 119 117 120 136 130 123 119 110 114 122 126 129 133 143 158 180 203 222
163 160 163 171 175 180 180 174 173 172 170 173 177 176 171 172 189 222 242 70 67 44 48 74 83 67 42 13 9 18 23 20 8 354 355 9 64 125 154 156 135 114 87 89 113 112 99 86 67 54 45 42 34 29 74 98 109 137 137 127 134 136 132 136 132 128 134 121 99 94 123 120 124 147 149 141 138 128 126 132 136 140 146 161 181 198 217 238
166 165 168 172 176 180 181 181 181 178 179 186 191 192 193 207 262 238 217 98 93 66 59 90 107 61 43 31 360 1 7 9 16 15 16 38 67 122 153 147 120 99 96 103 109 104 90 82 70 60 55 51 41 40 77 113 125 132 133 135 136 134 145 149 137 142 136 109 98 99 124 129 139 159 162 157 159 150 136 136 142 151 170 192 215 236 248 257
168 170 174 176 179 183 186 188 187 184 188 194 201 204 207 220 254 264 186 135 124 89 77 76 81 67 64 59 353 2 4 6 18 27 53 62 68 123 139 133 126 117 111 106 103 101 85 69 63 53 52 59 54 48 67 108 127 130 136 145 142 138 152 154 154 173 163 117 116 120 136 153 147 162 170 170 168 156 138 138 138 141 190 254 264 266 264 267
171 175 179 181 185 188 191 192 191 190 192 200 209 199 190 207 238 348 121 174 196 138 132 111 91 77 60 22 344 5 12 9 16 27 71 93 104 147 147 142 150 146 129 123 117 110 81 63 58 43 45 60 70 60 72 108 137 145 153 162 154 144 155 154 151 161 115 115 134 136 152 141 104 146 168 166 165 161 152 154 153 147 167 315 307 301 301 303
175 178 183 186 189 192 192 193 193 191 191 206 200 158 192 228 201 101 114 174 201 175 158 131 115 86 62 24 351 4 13 10 17 25 45 92 114 150 162 160 161 154 128 144 142 133 111 82 56 37 37 48 72 104 84 111 142 151 158 168 138 119 148 149 136 130 113 121 147 157 168 153 128 150 170 168 172 176 168 171 177 187 227 345 354 351 349 342
179 182 185 189 190 192 193 192 193 190 192 201 172 158 235 258 144 144 138 135 161 166 157 131 111 58 43 13 354 5 14 7 19 33 45 75 96 93 85 160 173 156 128 151 148 134 128 89 56 50 47 46 64 125 111 109 130 139 169 211 6 49 99 152 122 113 120 126 149 171 177 156 152 160 175 181 185 180 174 186 192 195 209 182 24 5 2 350
184 186 188 190 190 192 194 194 193 191 196 199 182 211 235 222 129 154 149 141 145 147 145 128 100 44 14 3 355 5 26 4 14 36 52 69 82 86 76 142 180 164 153 166 155 127 96 85 58 50 54 46 51 94 128 130 125 140 186 237 359 41 23 31 59 63 109 137 147 160 148 162 176 177 182 185 185 185 187 194 198 183 190 220 15 6 350 336
187 190 192 194 195 197 200 198 194 196 205 207 193 218 233 194 172 172 165 157 148 144 142 119 84 31 7 17 3 2 24 26 27 39 47 59 67 84 94 124 174 170 172 135 147 170 122 105 89 49 48 40 37 47 114 158 139 135 174 206 269 250 30 72 86 83 176 172 139 162 179 187 204 205 202 193 186 192 196 193 200 196 191 267 347 338 329 323
191 194 197 201 202 204 203 197 195 201 209 202 199 227 246 220 191 184 179 171 161 152 145 125 14 3 5 21 10 4 27 39 44 50 47 51 53 74 94 104 169 182 184 153 129 186 139 116 121 97 51 23 25 35 54 162 168 146 148 162 207 202 172 181 108 142 208 164 126 186 200 192 204 201 195 197 195 194 194 195 205 206 188 294 336 328 324 318
196 199 203 205 205 204 199 193 195 202 206 207 227 247 236 194 184 183 183 180 174 159 151 253 322 9 15 31 28 30 49 44 39 59 62 59 52 71 92 94 134 178 186 168 127 161 144 129 142 155 349 4 17 34 53 86 175 166 132 141 155 137 142 156 134 164 201 128 136 183 197 215 221 201 186 195 199 196 193 199 209 209 201 226 318 324 322 324
195 201 207 206 203 200 193 191 195 197 194 200 229 242 205 184 181 177 175 175 170 162 183 234 268 5 54 76 56 53 68 67 70 77 74 69 57 51 79 91 95 140 171 163 142 142 136 129 124 47 339 21 32 43 81 49 132 165 154 147 162 319 114 135 161 252 254 131 146 165 185 221 216 198 198 198 195 195 196 200 208 211 215 224 252 286 297 319
191 197 204 202 195 191 187 186 187 187 192 210 230 227 187 174 172 168 165 167 165 167 194 213 189 104 100 97 87 83 80 75 78 80 78 80 68 41 53 84 95 96 117 131 141 132 79 35 101 57 32 66 44 43 86 83 82 138 166 151 143 159 148 138 141 306 307 209 152 170 165 131 148 180 194 195 193 194 199 204 208 211 219 229 240 274 304 319
184 188 195 190 181 180 178 177 181 189 203 222 229 202 170 160 162 164 163 165 168 166 161 150 135 124 109 99 94 93 86 75 75 77 73 78 79 56 49 70 88 89 93 113 172 155 77 48 100 79 60 70 56 50 83 113 113 96 118 145 128 147 184 196 153 140 315 337 17 248 139 101 158 183 174 189 199 193 198 210 210 211 222 232 241 290 342 345
168 175 181 174 170 170 169 172 183 194 198 195 184 170 160 156 157 159 158 155 151 149 142 132 125 116 108 107 102 95 91 81 74 77 79 82 85 84 72 66 81 95 98 139 228 233 120 92 101 91 75 78 66 51 59 98 111 90 91 125 109 104 226 309 356 143 160 93 87 259 130 102 215 186 171 188 200 196 203 209 208 213 222 232 243 282 338 352
161 167 168 163 163 162 160 168 178 184 181 172 163 157 154 154 154 153 150 145 140 141 136 125 119 112 104 105 99 92 91 87 81 80 80 79 73 72 73 69 79 99 97 99 212 239 116 118 114 101 102 101 66 47 45 64 87 80 74 106 112 121 137 6 40 130 135 79 216 236 143 125 209 183 176 186 190 197 208 205 205 218 225 236 248 270 325 347
160 161 158 156 159 156 156 168 174 173 172 163 153 151 152 154 154 151 148 144 140 138 133 122 116 111 104 100 99 95 90 86 87 84 80 78 70 64 67 67 73 93 115 141 158 155 119 143 164 142 140 151 139 78 55 56 71 81 75 93 107 107 102 74 85 140 113 53 332 314 92 121 241 206 178 189 192 198 209 206 206 218 228 242 248 261 308 329
157 155 154 153 156 157 161 171 170 168 168 159 151 150 151 152 152 149 145 142 138 134 129 120 113 110 104 99 97 94 91 93 97 91 85 80 72 66 67 69 75 88 114 134 135 140 147 148 171 342 6 105 110 115 98 74 73 83 73 73 89 93 86 73 101 156 92 81 30 6 58 99 320 285 184 195 202 204 214 218 216 221 233 248 255 267 297 309
155 154 154 151 153 161 167 168 163 163 164 159 153 151 152 151 150 147 143 140 139 135 128 121 115 109 104 101 101 96 90 92 97 98 97 88 77 75 73 71 73 77 89 104 106 110 119 122 98 41 34 60 74 93 117 103 77 76 75 64 73 88 79 55 41 79 69 113 114 56 41 80 78 209 200 212 218 215 218 223 225 233 242 252 260 273 290 296
158 158 157 152 150 161 171 169 163 163 164 161 156 154 154 152 150 148 146 143 141 138 131 124 117 113 110 106 102 99 95 92 96 101 106 103 91 81 75 73 74 73 77 87 97 99 92 91 102 91 72 91 107 123 126 105 81 81 75 50 53 71 66 50 54 78 60 327 77 61 11 340 57 212 219 226 230 229 232 233 233 239 247 251 259 269 279 286
160 160 161 158 156 162 170 172 169 166 165 163 159 155 151 151 151 150 149 146 143 140 136 130 123 118 117 114 105 100 99 100 102 104 106 107 98 83 72 67 66 70 76 78 89 103 101 94 103 99 88 105 124 140 128 108 99 98 29 2 27 40 46 45 45 70 53 360 12 18 340 321 301 278 257 240 235 230 232 234 233 234 239 245 257 270 277 281
162 162 165 164 162 165 166 167 165 162 163 162 158 153 150 152 156 155 152 149 145 143 140 134 130 123 117 116 112 107 104 107 114 114 112 112 108 100 86 65 57 63 72 75 88 104 105 105 108 102 92 65 18 322 311 304 295 307 300 282 270 299 332 344 323 327 347 326 325 329 332 323 293 275 262 251 248 239 232 232 230 231 237 246 256 264 269 273
168 169 169 163 160 161 155 151 154 154 158 159 156 153 152 154 158 157 155 152 149 148 146 140 138 133 122 116 114 114 111 109 113 117 117 119 115 111 111 93 72 65 69 76 88 100 106 127 126 117 113 349 335 307 291 292 285 284 285 277 274 285 295 301 301 295 293 295 295 307 322 324 301 292 280 261 257 252 244 240 235 233 239 246 253 259 264 267
173 174 172 165 162 160 149 142 145 147 153 157 157 157 155 156 160 160 158 158 157 156 155 153 149 139 126 121 119 117 112 105 106 112 119 131 138 134 133 121 99 82 76 78 85 95 105 114 112 125 164 10 340 297 284 287 281 276 272 268 271 281 289 294 294 291 291 291 292 303 319 329 309 309 303 280 265 258 248 243 239 238 244 249 255 261 265 267
174 175 174 168 164 161 150 139 139 141 157 163 161 160 160 161 163 161 160 163 164 167 169 165 159 146 136 141 138 125 117 109 100 103 112 124 143 155 160 145 125 115 102 85 84 92 98 100 96 272 283 46 352 324 306 279 273 267 251 248 257 269 279 289 298 301 297 288 283 291 306 306 301 307 308 289 274 264 250 243 241 242 246 252 259 263 266 269
Height
3128 3129 3130 3129 3129 3129 3129 3129 3129 3130 3130 3130 3129 3129 3129 3128 3127 3127 3126 3126 3125 3124 3123 3123 3122 3121 3121 3120 3120 3119 3119 3118 3118 3118 3118 3117 3117 3117 3118 3118 3119 3120 3121 3122 3122 3123 3124 3125 3126 3127 3129 3132 3134 3135 3137 3139 3141 3144 3147 3148 3147 3147 3148 3149 3151 3152 3153 3154 3155 3153 3152 3155 3155 3154 3155 3155 3154 3152 3153 3154 3155 3155 3155 3156 3157 3158 3159 3160
3129 3130 3129 3129 3129 3130 3130 3130 3131 3131 3131 3130 3130 3130 3130 3129 3129 3128 3127 3127 3126 3125 3124 3123 3123 3122 3122 3122 3121 3121 3120 3120 3120 3119 3119 3119 3119 3119 3119 3120 3121 3122 3122 3123 3124 3125 3126 3128 3128 3129 3132 3134 3135 3136 3138 3139 3142 3145 3147 3147 3147 3148 3148 3149 3150 3151 3153 3154 3155 3154 3153 3155 3155 3154 3155 3154 3153 3152 3153 3154 3154 3155 3155 3156 3156 3156 3157 3159
3130 3130 3129 3130 3130 3130 3131 3132 3132 3132 3131 3132 3131 3131 3130 3130 3130 3129 3128 3128 3127 3126 3125 3124 3124 3123 3123 3123 3123 3122 3122 3122 3122 3122 3121 3121 3121 3121 3122 3122 3123 3124 3124 3125 3125 3126 3128 3129 3129 3131 3135 3136 3136 3138 3139 3141 3143 3146 3147 3147 3147 3148 3148 3148 3149 3150 3152 3153 3154 3154 3152 3155 3154 3152 3153 3153 3154 3153 3154 3155 3155 3155 3155 3155 3154 3154 3156 3159
3130 3130 3130 3130 3131 3131 3132 3133 3132 3132 3133 3133 3132 3132 3132 3131 3131 3130 3129 3128 3127 3126 3126 3126 3125 3125 3125 3124 3124 3124 3124 3124 3124 3124 3124 3124 3124 3124 3124 3124 3125 3126 3127 3127 3128 3129 3130 3131 3131 3133 3138 3138 3138 3139 3141 3142 3144 3145 3146 3147 3147 3147 3149 3149 3148 3150 3151 3152 3154 3154 3152 3152 3151 3151 3152 3153 3155 3154 3154 3155 3156 3156 3155 3154 3153 3153 3155 3157
3130 3130 3131 3131 3132 3133 3133 3133 3133 3133 3134 3134 3133 3133 3133 3133 3132 3131 3130 3129 3128 3128 3127 3127 3127 3126 3126 3126 3126 3125 3125 3127 3127 3127 3127 3127 3127 3127 3127 3127 3128 3129 3130 3130 3131 3132 3132 3134 3134 3136 3140 3141 3140 3142 3144 3143 3143 3145 3145 3146 3147 3147 3149 3149 3149 3151 3151 3152 3153 3153 3151 3152 3152 3153 3153 3153 3154 3154 3154 3155 3156 3156 3154 3155 3156 3156 3157 3158
3130 3131 3131 3132 3133 3134 3134 3134 3134 3135 3135 3135 3135 3135 3134 3134 3133 3133 3132 3131 3130 3129 3129 3128 3128 3127 3127 3127 3127 3126 3127 3129 3129 3129 3130 3129 3129 3130 3130 3131 3131 3131 3132 3133 3134 3134 3135 3135 3136 3139 3142 3142 3142 3143 3144 3143 3143 3146 3146 3147 3147 3148 3149 3150 3151 3152 3153 3153 3153 3152 3153 3154 3154 3153 3153 3154 3154 3154 3155 3155 3156 3156 3156 3159 3161 3161 3161 3162
3131 3132 3132 3133 3134 3134 3134 3135 3136 3136 3136 3136 3136 3136 3136 3135 3134 3134 3133 3132 3132 3131 3130 3130 3129 3129 3129 3129 3129 3129 3129 3130 3130 3131 3131 3131 3132 3132 3132 3133 3133 3134 3134 3135 3136 3137 3137 3138 3139 3142 3144 3143 3144 3144 3144 3144 3144 3146 3147 3147 3148 3149 3149 3151 3152 3153 3154 3153 3152 3153 3155 3156 3155 3153 3154 3155 3156 3156 3156 3156 3157 3156 3159 3162 3163 3164 3164 3164
3132 3133 3133 3134 3135 3135 3135 3136 3137 3137 3137 3137 3137 3137 3137 3136 3135 3135 3135 3134 3133 3133 3132 3132 3131 3131 3132 3131 3132 3132 3132 3132 3133 3133 3133 3133 3134 3134 3134 3134 3135 3136 3136 3137 3138 3139 3139 3141 3141 3142 3144 3144 3144 3145 3144 3145 3146 3147 3148 3148 3149 3150 3151 3152 3153 3154 3154 3152 3152 3154 3154 3155 3155 3155 3156 3157 3158 3158 3159 3159 3159 3159 3160 3162 3163 3164 3165 3165
3133 3133 3134 3135 3135 3136 3137 3138 3138 3138 3138 3138 3138 3138 3137 3137 3137 3136 3136 3136 3135 3135 3134 3134 3134 3134 3135 3134 3135 3135 3134 3135 3135 3136 3136 3136 3136 3136 3136 3137 3137 3138 3138 3139 3140 3140 3141 3142 3143 3143 3144 3145 3144 3145 3145 3146 3148 3148 3149 3149 3150 3151 3152 3153 3154 3154 3153 3153 3153 3153 3154 3155 3156 3156 3157 3158 3160 3161 3161 3162 3162 3162 3162 3162 3163 3165 3166 3167
3133 3134 3135 3135 3136 3137 3138 3139 3140 3139 3139 3139 3139 3139 3138 3138 3138 3138 3138 3137 3137 3136 3136 3136 3136 3136 3137 3137 3138 3138 3137 3137 3137 3138 3138 3138 3138 3138 3139 3139 3139 3140 3140 3141 3141 3142 3142 3143 3143 3143 3144 3145 3145 3146 3146 3147 3148 3149 3150 3150 3151 3152 3152 3153 3154 3154 3154 3154 3153 3153 3155 3156 3157 3158 3158 3159 3161 3162 3163 3163 3164 3164 3164 3164 3165 3166 3167 3167
3134 3135 3135 3136 3137 3138 3139 3141 3141 3141 3140 3140 3140 3139 3139 3139 3139 3140 3139 3139 3139 3138 3138 3138 3138 3139 3139 3139 3141 3140 3139 3139 3139 3140 3140 3140 3140 3140 3140 3141 3141 3141 3142 3142 3143 3143 3144 3144 3144 3144 3145 3146 3146 3147 3147 3148 3148 3149 3150 3152 3152 3153 3153 3154 3154 3154 3154 3154 3153 3154 3155 3156 3158 3159 3159 3160 3162 3163 3164 3164 3164 3164 3164 3164 3165 3167 3168 3167
3135 3135 3136 3137 3138 3140 3141 3142 3142 3142 3141 3141 3141 3140 3140 3141 3141 3141 3141 3140 3140 3140 3140 3140 3140 3141 3140 3141 3142 3141 3141 3141 3141 3141 3141 3142 3142 3142 3142 3142 3142 3143 3143 3143 3144 3144 3144 3145 3144 3145 3146 3147 3147 3148 3148 3148 3149 3150 3151 3153 3153 3153 3153 3154 3155 3155 3155 3155 3155 3156 3156 3157 3158 3159 3161 3162 3163 3164 3165 3165 3164 3165 3165 3166 3167 3168 3168 3167
3135 3136 3137 3138 3140 3141 3142 3143 3144 3143 3142 3142 3142 3142 3142 3142 3142 3142 3142 3142 3142 3142 3142 3142 3142 3142 3142 3143 3143 3142 3143 3143 3143 3143 3143 3143 3143 3143 3143 3144 3144 3144 3144 3145 3145 3145 3145 3145 3145 3145 3146 3147 3148 3148 3148 3148 3149 3150 3151 3153 3154 3154 3154 3154 3155 3155 3156 3156 3156 3157 3159 3160 3160 3161 3162 3163 3164 3165 3165 3166 3165 3165 3166 3167 3168 3169 3169 3169
3136 3137 3138 3139 3141 3142 3143 3144 3145 3144 3144 3143 3143 3143 3143 3144 3144 3144 3144 3143 3143 3144 3144 3144 3144 3143 3144 3145 3144 3144 3144 3144 3144 3144 3144 3144 3144 3144 3144 3145 3145 3145 3145 3146 3146 3146 3146 3146 3146 3146 3147 3148 3148 3148 3149 3149 3150 3151 3151 3152 3153 3154 3156 3154 3154 3155 3156 3156 3156 3157 3159 3161 3161 3162 3163 3164 3165 3165 3166 3166 3166 3166 3167 3168 3169 3170 3171 3171
3137 3137 3139 3140 3142 3143 3144 3145 3145 3145 3145 3145 3145 3145 3145 3145 3145 3145 3145 3145 3145 3146 3146 3146 3146 3145 3147 3147 3145 3145 3145 3145 3145 3145 3145 3145 3145 3145 3145 3145 3146 3146 3146 3146 3147 3147 3147 3147 3147 3148 3148 3148 3148 3148 3150 3150 3151 3151 3151 3151 3151 3154 3156 3154 3153 3155 3155 3155 3156 3158 3159 3160 3162 3163 3164 3165 3165 3166 3166 3166 3166 3167 3168 3169 3170 3170 3171 3172
3138 3138 3140 3141 3143 3145 3146 3146 3146 3146 3146 3146 3146 3146 3147 3147 3147 3147 3147 3147 3147 3147 3147 3148 3147 3147 3149 3149 3147 3147 3146 3146 3146 3145 3145 3145 3145 3145 3146 3146 3147 3147 3147 3147 3147 3147 3148 3148 3148 3148 3149 3149 3149 3150 3150 3150 3150 3150 3150 3150 3150 3152 3155 3155 3153 3154 3154 3154 3156 3158 3159 3161 3162 3163 3165 3165 3166 3166 3166 3166 3167 3168 3168 3169 3170 3171 3172 3172
3139 3140 3141 3143 3144 3146 3146 3147 3147 3147 3147 3147 3148 3148 3148 3148 3148 3148 3149 3149 3149 3149 3149 3149 3148 3148 3150 3149 3148 3148 3148 3147 3147 3146 3146 3146 3146 3146 3146 3147 3147 3148 3148 3148 3148 3148 3148 3149 3149 3149 3150 3150 3150 3150 3149 3148 3149 3149 3150 3150 3151 3151 3153 3155 3155 3154 3154 3153 3155 3157 3158 3161 3163 3164 3165 3166 3166 3167 3167 3168 3168 3169 3169 3169 3170 3171 3172 3173
3140 3141 3142 3144 3145 3146 3147 3148 3148 3148 3148 3148 3149 3149 3149 3149 3150 3150 3150 3150 3151 3151 3151 3150 3150 3150 3151 3150 3150 3150 3149 3149 3148 3148 3148 3147 3147 3147 3147 3148 3148 3148 3149 3149 3149 3149 3149 3150 3150 3150 3150 3150 3150 3149 3148 3147 3148 3149 3149 3150 3151 3151 3153 3155 3155 3155 3154 3153 3155 3157 3158 3161 3163 3164 3166 3166 3167 3168 3168 3169 3169 3170 3169 3169 3171 3171 3172 3173
3141 3142 3144 3145 3146 3147 3148 3149 3149 3149 3149 3150 3150 3150 3150 3151 3151 3152 3152 3152 3152 3152 3152 3151 3150 3151 3152 3151 3151 3151 3150 3150 3150 3149 3149 3149 3149 3148 3149 3149 3149 3149 3150 3151 3150 3150 3150 3151 3150 3150 3150 3150 3149 3149 3148 3148 3148 3149 3149 3149 3150 3151 3153 3154 3154 3155 3155 3153 3156 3159 3159 3162 3163 3164 3166 3167 3167 3168 3169 3169 3169 3170 3170 3170 3171 3171 3172 3173
3142 3143 3145 3146 3147 3148 3149 3150 3150 3150 3150 3151 3151 3151 3151 3152 3153 3153 3153 3153 3152 3152 3152 3152 3151 3151 3152 3152 3152 3152 3151 3151 3151 3150 3150 3150 3149 3149 3150 3150 3150 3151 3152 3152 3151 3150 3151 3151 3151 3150 3150 3149 3148 3148 3148 3148 3148 3149 3149 3149 3150 3151 3153 3154 3153 3154 3154 3154 3158 3160 3160 3162 3163 3164 3166 3167 3168 3168 3169 3170 3170 3170 3170 3170 3171 3172 3173 3173
3143 3145 3146 3147 3148 3148 3149 3150 3151 3151 3151 3152 3152 3152 3152 3152 3153 3154 3154 3153 3153 3153 3152 3152 3152 3152 3152 3152 3152 3152 3152 3153 3152 3151 3151 3151 3150 3151 3151 3151 3152 3152 3151 3151 3151 3151 3151 3151 3151 3149 3149 3148 3148 3148 3148 3148 3148 3149 3149 3149 3151 3152 3153 3154 3154 3154 3154 3154 3159 3161 3161 3163 3164 3164 3165 3167 3168 3169 3169 3170 3171 3171 3171 3171 3172 3173 3173 3174
3144 3146 3147 3147 3148 3149 3150 3151 3152 3152 3152 3152 3153 3153 3153 3153 3153 3154 3154 3154 3154 3154 3153 3153 3153 3153 3153 3153 3153 3153 3153 3154 3153 3152 3152 3151 3151 3152 3152 3152 3153 3152 3151 3151 3152 3151 3151 3151 3150 3149 3148 3148 3148 3148 3148 3149 3149 3149 3149 3150 3151 3152 3154 3154 3154 3155 3155 3155 3158 3161 3161 3163 3165 3165 3166 3166 3167 3168 3169 3170 3171 3171 3171 3172 3173 3173 3174 3174
3145 3146 3147 3148 3148 3149 3151 3152 3152 3153 3153 3153 3153 3154 3154 3154 3154 3154 3154 3155 3155 3155 3154 3154 3154 3154 3154 3154 3154 3153 3154 3154 3153 3152 3152 3152 3152 3152 3152 3153 3153 3153 3152 3152 3151 3151 3151 3151 3150 3149 3148 3148 3148 3149 3149 3149 3149 3149 3149 3150 3151 3152 3153 3154 3155 3157 3157 3156 3157 3159 3161 3164 3166 3166 3166 3166 3167 3167 3168 3169 3170 3171 3171 3172 3173 3173 3174 3174
3145 3147 3147 3148 3149 3150 3151 3152 3153 3153 3153 3154 3154 3154 3155 3155 3155 3155 3155 3155 3156 3156 3155 3155 3155 3155 3155 3154 3154 3154 3154 3154 3153 3153 3152 3152 3152 3152 3152 3153 3153 3153 3153 3153 3152 3152 3152 3151 3150 3149 3149 3149 3149 3149 3149 3149 3150 3150 3150 3150 3152 3153 3153 3154 3156 3157 3158 3158 3158 3159 3161 3165 3168 3168 3168 3167 3168 3168 3168 3169 3169 3170 3171 3171 3172 3172 3173 3173
3146 3147 3148 3148 3149 3151 3152 3153 3153 3154 3154 3154 3155 3155 3155 3155 3155 3156 3155 3156 3157 3157 3156 3156 3155 3155 3155 3155 3154 3154 3154 3154 3153 3153 3152 3152 3152 3152 3152 3153 3153 3154 3153 3154 3153 3153 3153 3152 3151 3151 3151 3150 3150 3150 3150 3150 3150 3151 3151 3151 3153 3153 3153 3154 3156 3157 3159 3160 3160 3159 3161 3167 3170 3169 3169 3169 3169 3169 3169 3170 3169 3170 3170 3171 3171 3171 3172 3172
3146 3147 3148 3149 3150 3151 3152 3153 3154 3154 3155 3155 3155 3155 3156 3156 3156 3156 3156 3156 3157 3157 3157 3156 3156 3155 3155 3155 3155 3154 3155 3155 3154 3153 3153 3153 3152 3152 3153 3153 3153 3154 3154 3154 3153 3153 3154 3153 3153 3153 3152 3151 3150 3150 3150 3150 3151 3152 3152 3152 3153 3154 3154 3155 3157 3158 3159 3160 3160 3159 3160 3167 3171 3170 3171 3171 3171 3170 3170 3170 3170 3170 3171 3171 3171 3171 3171 3171
3146 3147 3148 3149 3150 3151 3152 3153 3154 3154 3155 3155 3156 3156 3156 3156 3156 3157 3156 3156 3157 3157 3157 3156 3156 3156 3155 3155 3155 3155 3155 3155 3154 3153 3153 3152 3152 3152 3153 3153 3153 3153 3153 3153 3153 3154 3155 3155 3154 3154 3152 3151 3151 3150 3150 3150 3151 3152 3152 3153 3154 3155 3155 3156 3157 3158 3159 3159 3160 3160 3160 3164 3169 3171 3171 3172 3172 3171 3171 3171 3171 3171 3171 3171 3171 3171 3171 3171
3146 3147 3148 3149 3150 3152 3153 3153 3154 3154 3155 3155 3156 3156 3156 3157 3157 3157 3156 3157 3158 3157 3157 3156 3156 3156 3156 3156 3156 3155 3155 3155 3155 3154 3153 3152 3151 3152 3153 3154 3154 3154 3154 3153 3154 3155 3155 3155 3155 3154 3153 3152 3151 3151 3150 3151 3151 3152 3153 3154 3155 3156 3156 3156 3157 3158 3159 3159 3160 3162 3162 3163 3169 3172 3172 3172 3173 3172 3172 3172 3171 3171 3171 3171 3171 3171 3171 3170
3145 3147 3148 3149 3150 3151 3152 3153 3154 3154 3155 3156 3156 3156 3157 3157 3157 3157 3157 3158 3158 3158 3157 3157 3156 3156 3156 3156 3156 3156 3155 3155 3155 3154 3152 3151 3151 3152 3153 3153 3154 3155 3154 3154 3155 3155 3155 3155 3154 3154 3154 3153 3152 3151 3151 3151 3152 3152 3153 3155 3156 3158 3158 3157 3157 3158 3159 3159 3161 3163 3163 3164 3169 3172 3172 3173 3173 3173 3173 3172 3172 3172 3171 3171 3171 3171 3171 3170
3145 3147 3148 3149 3150 3151 3152 3153 3154 3154 3155 3156 3156 3157 3157 3158 3157 3157 3157 3159 3158 3158 3157 3157 3157 3157 3157 3157 3157 3156 3155 3155 3154 3153 3152 3152 3151 3151 3152 3154 3155 3156 3155 3155 3155 3156 3156 3155 3155 3154 3154 3153 3152 3152 3151 3152 3153 3153 3155 3157 3157 3159 3159 3158 3159 3159 3158 3160 3163 3164 3163 3163 3167 3171 3172 3172 3172 3172 3173 3172 3172 3172 3172 3171 3171 3171 3170 3170
3145 3146 3148 3149 3150 3151 3152 3153 3154 3154 3155 3156 3156 3157 3157 3158 3158 3157 3158 3159 3158 3158 3158 3157 3157 3157 3157 3158 3157 3156 3155 3155 3154 3154 3153 3153 3153 3153 3153 3155 3156 3156 3156 3156 3157 3157 3157 3156 3156 3155 3154 3154 3153 3153 3153 3153 3154 3155 3156 3157 3157 3158 3159 3158 3159 3158 3157 3161 3164 3164 3164 3163 3164 3169 3171 3170 3171 3171 3172 3172 3172 3172 3171 3171 3170 3170 3170 3169
3144 3146 3147 3148 3149 3150 3152 3153 3154 3154 3155 3156 3157 3157 3158 3158 3158 3158 3158 3159 3159 3159 3159 3158 3158 3158 3157 3158 3157 3156 3156 3155 3154 3154 3154 3154 3154 3153 3154 3155 3156 3156 3156 3157 3157 3158 3158 3158 3157 3156 3155 3154 3154 3155 3155 3155 3156 3156 3156 3156 3155 3155 3156 3156 3156 3157 3158 3162 3165 3164 3164 3164 3165 3168 3170 3170 3170 3171 3171 3172 3171 3171 3171 3170 3170 3169 3169 3169
3144 3145 3147 3148 3149 3150 3151 3152 3153 3154 3155 3156 3157 3158 3158 3158 3158 3159 3159 3159 3159 3159 3158 3158 3158 3158 3158 3158 3157 3156 3156 3155 3154 3154 3153 3154 3154 3154 3154 3155 3155 3155 3156 3157 3157 3158 3158 3158 3158 3157 3157 3155 3155 3155 3155 3155 3157 3156 3156 3155 3152 3151 3155 3155 3155 3157 3159 3162 3165 3165 3164 3165 3166 3168 3168 3169 3170 3170 3170 3170 3170 3170 3170 3169 3169 3169 3169 3168
3143 3145 3146 3147 3149 3150 3151 3152 3153 3154 3156 3156 3157 3158 3159 3158 3158 3159 3159 3159 3159 3159 3159 3159 3159 3158 3158 3158 3157 3156 3156 3155 3155 3154 3154 3154 3155 3155 3155 3155 3155 3156 3157 3157 3157 3157 3156 3157 3158 3158 3157 3156 3155 3155 3154 3156 3156 3156 3155 3155 3153 3152 3154 3155 3153 3155 3157 3161 3164 3165 3164 3165 3166 3167 3167 3168 3169 3169 3169 3169 3169 3170 3169 3169 3169 3169 3168 3168
3142 3144 3145 3147 3148 3150 3151 3152 3153 3155 3156 3156 3158 3159 3159 3158 3159 3159 3159 3159 3159 3159 3159 3159 3159 3160 3159 3158 3157 3156 3156 3156 3155 3155 3155 3155 3155 3155 3155 3155 3155 3156 3157 3157 3157 3158 3157 3158 3158 3158 3157 3157 3157 3156 3156 3156 3156 3156 3156 3155 3154 3154 3155 3156 3155 3156 3158 3159 3162 3164 3165 3166 3166 3166 3167 3167 3167 3168 3168 3169 3169 3169 3169 3168 3169 3169 3168 3167
3142 3144 3145 3147 3148 3149 3150 3152 3153 3155 3156 3157 3158 3159 3158 3158 3158 3158 3159 3159 3159 3159 3160 3160 3160 3161 3160 3159 3158 3157 3156 3156 3156 3156 3155 3155 3155 3155 3155 3155 3155 3156 3157 3157 3158 3158 3158 3159 3159 3159 3158 3158 3157 3157 3157 3156 3156 3156 3156 3155 3155 3156 3158 3157 3157 3160 3159 3157 3160 3164 3165 3166 3166 3166 3166 3166 3167 3168 3168 3169 3169 3169 3168 3168 3168 3168 3167 3166
3142 3144 3145 3146 3148 3149 3150 3151 3153 3154 3155 3157 3158 3158 3158 3157 3158 3158 3158 3159 3159 3159 3160 3161 3161 3161 3161 3160 3159 3158 3157 3156 3156 3157 3156 3156 3156 3156 3155 3155 3155 3155 3156 3157 3158 3158 3157 3159 3160 3159 3159 3158 3157 3157 3157 3156 3156 3156 3155 3156 3156 3157 3158 3157 3158 3160 3157 3155 3161 3164 3164 3165 3165 3165 3165 3166 3167 3167 3168 3169 3169 3169 3168 3168 3168 3167 3166 3165
3142 3143 3145 3146 3147 3148 3150 3151 3153 3154 3155 3157 3157 3157 3157 3157 3157 3158 3158 3159 3159 3160 3161 3162 3161 3161 3161 3161 3160 3158 3158 3157 3157 3157 3157 3156 3157 3156 3156 3156 3156 3156 3156 3157 3158 3158 3158 3158 3159 3159 3159 3158 3157 3157 3158 3157 3156 3156 3155 3156 3157 3157 3157 3157 3158 3158 3155 3155 3160 3162 3163 3164 3164 3163 3164 3165 3166 3167 3168 3169 3169 3169 3169 3169 3168 3167 3166 3164
3141 3143 3144 3145 3147 3148 3150 3151 3153 3154 3156 3157 3157 3156 3156 3156 3157 3158 3158 3159 3160 3161 3161 3162 3161 3161 3161 3161 3160 3159 3158 3158 3158 3157 3157 3157 3157 3157 3156 3156 3156 3156 3156 3157 3158 3158 3158 3158 3158 3159 3159 3158 3158 3158 3158 3159 3157 3157 3157 3158 3158 3157 3157 3157 3158 3156 3154 3155 3159 3161 3163 3162 3162 3163 3163 3164 3165 3166 3167 3168 3169 3169 3169 3168 3168 3167 3166 3164
3141 3142 3143 3144 3146 3148 3149 3151 3152 3154 3155 3156 3156 3156 3156 3156 3157 3158 3158 3159 3160 3161 3161 3162 3162 3162 3161 3161 3161 3160 3159 3159 3159 3158 3158 3158 3158 3158 3157 3156 3156 3156 3156 3157 3158 3158 3159 3158 3158 3159 3159 3158 3159 3158 3158 3158 3158 3158 3158 3159 3159 3158 3158 3158 3158 3158 3156 3155 3156 3158 3160 3160 3161 3163 3163 3164 3165 3166 3166 3167 3168 3168 3168 3167 3167 3166 3165 3163
3140 3142 3143 3144 3146 3147 3149 3151 3152 3153 3154 3155 3155 3155 3155 3156 3157 3158 3159 3160 3160 3161 3161 3162 3162 3162 3162 3161 3161 3161 3160 3160 3160 3159 3159 3159 3159 3159 3158 3157 3157 3157 3157 3158 3158 3158 3159 3159 3159 3160 3160 3160 3159 3158 3157 3157 3157 3158 3159 3159 3159 3159 3159 3157 3156 3159 3159 3157 3156 3156 3157 3160 3162 3162 3164 3165 3165 3165 3166 3166 3167 3167 3167 3167 3166 3164 3163 3162
3141 3142 3143 3144 3145 3147 3149 3151 3152 3153 3154 3154 3154 3154 3155 3156 3157 3158 3159 3160 3161 3161 3162 3162 3162 3162 3162 3162 3162 3161 3161 3161 3161 3161 3160 3160 3159 3159 3158 3157 3157 3157 3158 3159 3159 3158 3159 3159 3160 3160 3160 3160 3159 3157 3156 3156 3156 3157 3158 3158 3159 3159 3159 3157 3155 3158 3159 3159 3159 3157 3157 3160 3162 3162 3163 3164 3164 3165 3165 3165 3166 3166 3166 3165 3164 3163 3162 3161
3140 3142 3143 3144 3146 3147 3149 3151 3152 3152 3153 3153 3154 3154 3155 3156 3157 3158 3159 3160 3161 3162 3162 3162 3162 3162 3162 3162 3162 3162 3162 3162 3162 3162 3161 3161 3160 3159 3158 3158 3158 3157 3158 3159 3159 3158 3159 3159 3160 3160 3160 3160 3159 3158 3157 3157 3157 3159 3159 3158 3159 3159 3159 3158 3157 3158 3159 3159 3159 3157 3157 3161 3162 3161 3162 3163 3164 3164 3164 3164 3165 3165 3164 3163 3163 3162 3161 3160
3140 3142 3143 3145 3146 3148 3150 3151 3151 3152 3152 3153 3154 3154 3155 3156 3157 3158 3160 3160 3161 3162 3162 3162 3162 3163 3163 3163 3163 3163 3163 3163 3163 3163 3162 3162 3161 3160 3159 3159 3158 3158 3158 3159 3159 3159 3159 3159 3159 3159 3159 3159 3159 3158 3158 3159 3159 3160 3160 3158 3158 3159 3159 3159 3159 3159 3159 3160 3159 3156 3157 3160 3161 3160 3161 3162 3163 3164 3163 3163 3163 3163 3163 3162 3162 3161 3160 3159
3141 3143 3144 3145 3147 3148 3149 3150 3151 3151 3152 3153 3154 3155 3156 3157 3158 3159 3159 3160 3161 3162 3163 3163 3163 3163 3163 3163 3163 3163 3163 3163 3163 3163 3163 3163 3162 3161 3160 3160 3159 3159 3159 3159 3158 3158 3159 3160 3159 3158 3157 3157 3158 3158 3159 3160 3161 3161 3160 3159 3159 3159 3159 3159 3159 3158 3159 3161 3161 3159 3159 3161 3161 3160 3161 3161 3162 3162 3163 3162 3162 3162 3161 3161 3161 3160 3159 3158
3142 3143 3145 3146 3147 3148 3149 3150 3151 3151 3152 3153 3154 3155 3156 3157 3158 3159 3160 3161 3162 3162 3163 3163 3163 3164 3164 3164 3164 3164 3164 3164 3164 3164 3164 3164 3163 3162 3162 3161 3160 3160 3159 3159 3159 3159 3160 3160 3160 3159 3158 3158 3159 3160 3160 3161 3161 3162 3161 3161 3160 3159 3159 3159 3159 3159 3159 3160 3161 3161 3161 3162 3162 3161 3161 3161 3161 3161 3162 3161 3161 3161 3160 3160 3160 3159 3158 3158
3142 3143 3145 3146 3147 3149 3149 3150 3151 3151 3152 3153 3154 3155 3156 3157 3158 3159 3160 3161 3162 3163 3163 3164 3164 3164 3165 3165 3165 3165 3165 3165 3165 3165 3165 3165 3164 3164 3163 3162 3162 3161 3161 3160 3160 3160 3161 3161 3160 3161 3160 3160 3161 3161 3161 3161 3162 3162 3162 3161 3161 3160 3160 3160 3160 3160 3160 3159 3160 3161 3162 3162 3162 3162 3161 3161 3161 3161 3161 3161 3161 3161 3160 3159 3158 3158 3158 3157
3142 3143 3144 3145 3147 3148 3149 3150 3150 3151 3152 3153 3154 3155 3156 3157 3158 3159 3160 3161 3162 3163 3163 3164 3164 3165 3165 3165 3166 3166 3166 3166 3166 3166 3165 3165 3165 3165 3165 3164 3163 3162 3162 3161 3161 3161 3162 3163 3162 3162 3162 3161 3162 3162 3161 3161 3162 3162 3162 3162 3161 3161 3161 3161 3161 3161 3161 3160 3160 3161 3161 3161 3161 3161 3161 3161 3160 3160 3161 3160 3160 3160 3160 3159 3158 3157 3157 3156
3142 3143 3144 3145 3146 3147 3149 3149 3150 3151 3152 3153 3154 3155 3156 3158 3159 3159 3160 3161 3162 3163 3164 3164 3165 3165 3165 3165 3166 3166 3166 3166 3166 3166 3166 3166 3166 3166 3166 3166 3165 3164 3163 3163 3162 3162 3163 3163 3163 3162 3163 3163 3162 3162 3162 3162 3162 3162 3162 3162 3161 3161 3161 3161 3161 3161 3161 3161 3161 3161 3160 3160 3160 3160 3160 3159 3158 3158 3159 3159 3158 3159 3158 3158 3157 3157 3157 3156
3142 3143 3145 3146 3147 3148 3149 3149 3150 3151 3152 3153 3154 3155 3156 3158 3159 3159 3160 3161 3162 3163 3164 3164 3165 3165 3165 3166 3166 3167 3167 3167 3167 3166 3166 3167 3166 3167 3167 3167 3166 3165 3164 3164 3163 3163 3163 3164 3163 3163 3164 3163 3163 3162 3162 3162 3162 3162 3162 3162 3161 3161 3161 3161 3161 3160 3160 3160 3161 3160 3160 3159 3159 3158 3158 3157 3156 3156 3157 3157 3157 3157 3157 3157 3157 3156 3156 3155
3142 3143 3145 3146 3147 3148 3149 3149 3150 3152 3152 3153 3154 3155 3156 3157 3158 3159 3160 3161 3162 3163 3163 3164 3165 3165 3166 3166 3166 3166 3166 3166 3166 3166 3166 3167 3167 3167 3167 3167 3167 3167 3166 3165 3165 3164 3164 3164 3164 3164 3164 3164 3163 3162 3162 3162 3161 3161 3161 3161 3161 3161 3161 3161 3160 3160 3160 3160 3160 3159 3159 3159 3158 3156 3156 3156 3155 3155 3155 3156 3156 3156 3156 3156 3155 3155 3155 3154
3141 3143 3144 3146 3147 3148 3149 3149 3151 3152 3153 3153 3154 3155 3156 3157 3158 3159 3160 3161 3162 3163 3163 3164 3165 3165 3166 3166 3166 3166 3166 3166 3166 3166 3166 3166 3166 3166 3166 3166 3167 3167 3167 3166 3166 3165 3165 3165 3165 3165 3164 3164 3163 3162 3162 3162 3161 3160 3160 3160 3161 3161 3160 3160 3160 3159 3159 3159 3159 3159 3158 3157 3156 3155 3155 3155 3155 3154 3155 3155 3155 3155 3155 3154 3154 3154 3153 3152